N99TT KFLL-KORL

Flight info

Callsign N99TT
Flight time 0h 41m
Altitude 28000
Route FRSBE2 WAPOM MUNGI1
Aircraft C750/M-SBDE3FGHRWXY/S

Departure

Time 2026-05-05 01:10
Airport Fort Lauderdale Hollywood International Airport (KFLL)

Arrival

Time 2026-05-05 01:51
Airport Orlando Executive Airport (KORL)
Time Latitude Longitude Altitude Speed Heading
2026-05-05 00:49 26.07348 -80.15683 9 ft 0 kts 136°
2026-05-05 01:02 26.07335 -80.15669 9 ft 0 kts 135°
2026-05-05 01:02 26.07333 -80.15666 9 ft 0 kts 135°
2026-05-05 01:02 26.07329 -80.15662 9 ft 1 kts 135°
2026-05-05 01:03 26.07328 -80.15661 9 ft 0 kts 127°
2026-05-05 01:03 26.07328 -80.15660 9 ft 0 kts 121°
2026-05-05 01:04 26.07329 -80.15657 9 ft 1 kts 46°
2026-05-05 01:04 26.07350 -80.15645 9 ft 2 kts 345°
2026-05-05 01:04 26.07366 -80.15651 9 ft 2 kts 341°
2026-05-05 01:05 26.07384 -80.15659 9 ft 2 kts 331°
2026-05-05 01:05 26.07408 -80.15681 9 ft 7 kts 317°
2026-05-05 01:05 26.07454 -80.15733 9 ft 10 kts 315°
2026-05-05 01:05 26.07494 -80.15797 9 ft 10 kts 274°
2026-05-05 01:06 26.07494 -80.15879 9 ft 11 kts 271°
2026-05-05 01:06 26.07495 -80.15966 9 ft 11 kts 270°
2026-05-05 01:06 26.07496 -80.16061 9 ft 12 kts 271°
2026-05-05 01:06 26.07497 -80.16161 9 ft 13 kts 271°
2026-05-05 01:07 26.07497 -80.16269 9 ft 14 kts 268°
2026-05-05 01:07 26.07498 -80.16381 9 ft 14 kts 270°
2026-05-05 01:07 26.07498 -80.16499 9 ft 15 kts 270°
2026-05-05 01:07 26.07498 -80.16531 9 ft 0 kts 269°
2026-05-05 01:08 26.07499 -80.16544 9 ft 3 kts 285°
2026-05-05 01:08 26.07535 -80.16561 9 ft 6 kts 359°
2026-05-05 01:08 26.07583 -80.16561 9 ft 7 kts
2026-05-05 01:08 26.07634 -80.16560 9 ft 7 kts
2026-05-05 01:09 26.07686 -80.16555 9 ft 6 kts 51°
2026-05-05 01:09 26.07695 -80.16508 9 ft 6 kts 92°
2026-05-05 01:09 26.07692 -80.16291 9 ft 80 kts 91°
2026-05-05 01:09 26.07675 -80.15253 96 ft 174 kts 92°
2026-05-05 01:10 26.07604 -80.13799 1014 ft 212 kts 91°
2026-05-05 01:10 26.07564 -80.12176 2258 ft 224 kts 89°
2026-05-05 01:10 26.07552 -80.10430 3418 ft 241 kts 89°
2026-05-05 01:10 26.07560 -80.08496 4520 ft 263 kts 89°
2026-05-05 01:11 26.07589 -80.06341 4965 ft 298 kts 88°
2026-05-05 01:11 26.07634 -80.03918 5005 ft 323 kts 87°
2026-05-05 01:11 26.08185 -80.01550 4970 ft 305 kts 60°
2026-05-05 01:11 26.09609 -80.00037 5021 ft 270 kts 26°
2026-05-05 01:12 26.11380 -79.99693 4991 ft 257 kts 354°
2026-05-05 01:12 26.13282 -80.00058 5283 ft 288 kts 350°
2026-05-05 01:12 26.15258 -80.00427 6284 ft 294 kts 349°
2026-05-05 01:12 26.17270 -80.00805 7389 ft 295 kts 348°
2026-05-05 01:13 26.19291 -80.01185 8412 ft 298 kts 347°
2026-05-05 01:13 26.21345 -80.01562 9348 ft 303 kts 346°
2026-05-05 01:13 26.23251 -80.02415 10227 ft 298 kts 318°
2026-05-05 01:13 26.24436 -80.04244 11110 ft 293 kts 287°
2026-05-05 01:14 26.24571 -80.06447 12030 ft 290 kts 261°
2026-05-05 01:14 26.24258 -80.08660 12863 ft 295 kts 261°
2026-05-05 01:14 26.24065 -80.10944 13615 ft 301 kts 274°
2026-05-05 01:14 26.24600 -80.13219 14503 ft 304 kts 287°
2026-05-05 01:15 26.25300 -80.15401 15452 ft 302 kts 290°
2026-05-05 01:15 26.26319 -80.17420 16245 ft 306 kts 300°
2026-05-05 01:15 26.27477 -80.19429 17078 ft 306 kts 298°
2026-05-05 01:15 26.28600 -80.21412 17814 ft 308 kts 299°
2026-05-05 01:16 26.29761 -80.23451 18551 ft 311 kts 299°
2026-05-05 01:16 26.30910 -80.25479 19139 ft 317 kts 299°
2026-05-05 01:16 26.32104 -80.27586 19577 ft 327 kts 299°
2026-05-05 01:16 26.33324 -80.29729 20185 ft 331 kts 299°
2026-05-05 01:17 26.34562 -80.31917 20825 ft 333 kts 299°
2026-05-05 01:17 26.35808 -80.34115 20977 ft 342 kts 299°
2026-05-05 01:17 26.37107 -80.36409 21008 ft 360 kts 300°
2026-05-05 01:17 26.38479 -80.38837 21013 ft 378 kts 300°
2026-05-05 01:18 26.39933 -80.41396 21020 ft 393 kts 300°
2026-05-05 01:18 26.41390 -80.43974 21009 ft 401 kts 300°
2026-05-05 01:18 26.42864 -80.46586 20991 ft 393 kts 300°
2026-05-05 01:18 26.44331 -80.49167 20988 ft 388 kts 300°
2026-05-05 01:19 26.45741 -80.51672 20986 ft 384 kts 300°
2026-05-05 01:19 26.47172 -80.54187 20985 ft 380 kts 300°
2026-05-05 01:19 26.48997 -80.56345 20966 ft 387 kts 321°
2026-05-05 01:19 26.51471 -80.57507 20998 ft 395 kts 340°
2026-05-05 01:20 26.54135 -80.58280 20995 ft 391 kts 338°
2026-05-05 01:20 26.56763 -80.59108 20989 ft 390 kts 339°
2026-05-05 01:20 26.59346 -80.59925 20993 ft 388 kts 338°
2026-05-05 01:20 26.61964 -80.60753 20995 ft 386 kts 338°
2026-05-05 01:21 26.64564 -80.61577 20994 ft 385 kts 339°
2026-05-05 01:21 26.67121 -80.62392 20997 ft 384 kts 339°
2026-05-05 01:21 26.69714 -80.63215 20998 ft 383 kts 338°
2026-05-05 01:21 26.72278 -80.64030 21000 ft 382 kts 338°
2026-05-05 01:22 26.74824 -80.64844 20999 ft 382 kts 338°
2026-05-05 01:22 26.77368 -80.65653 21011 ft 381 kts 338°
2026-05-05 01:22 26.79933 -80.66473 21012 ft 381 kts 338°
2026-05-05 01:22 26.82497 -80.67284 21011 ft 381 kts 338°
2026-05-05 01:23 26.85045 -80.68103 21011 ft 381 kts 338°
2026-05-05 01:23 26.87604 -80.68913 21009 ft 381 kts 338°
2026-05-05 01:23 26.90156 -80.69735 21013 ft 381 kts 338°
2026-05-05 01:23 26.92784 -80.70396 21015 ft 397 kts 345°
2026-05-05 01:24 26.95411 -80.71317 21018 ft 394 kts 328°
2026-05-05 01:24 26.97997 -80.72553 21020 ft 407 kts 335°
2026-05-05 01:24 27.00692 -80.73624 21020 ft 415 kts 335°
2026-05-05 01:24 27.03482 -80.74699 21024 ft 423 kts 336°
2026-05-05 01:25 27.06296 -80.75779 21019 ft 427 kts 336°
2026-05-05 01:25 27.09082 -80.76827 21004 ft 418 kts 336°
2026-05-05 01:25 27.11811 -80.77863 21007 ft 409 kts 336°
2026-05-05 01:25 27.14526 -80.78889 21011 ft 402 kts 336°
2026-05-05 01:26 27.17167 -80.79891 21021 ft 396 kts 336°
2026-05-05 01:26 27.19775 -80.80885 21023 ft 391 kts 336°
2026-05-05 01:26 27.22358 -80.81863 21021 ft 387 kts 336°
2026-05-05 01:26 27.24910 -80.82832 21027 ft 383 kts 336°
2026-05-05 01:27 27.27416 -80.83784 21025 ft 380 kts 336°
2026-05-05 01:27 27.29938 -80.84741 21026 ft 377 kts 335°
2026-05-05 01:27 27.32410 -80.85671 21023 ft 376 kts 338°
2026-05-05 01:27 27.35011 -80.86185 21025 ft 382 kts 350°
2026-05-05 01:28 27.37721 -80.86081 21029 ft 388 kts
2026-05-05 01:28 27.40342 -80.85358 21029 ft 395 kts 13°
2026-05-05 01:28 27.42884 -80.84002 21033 ft 402 kts 26°
2026-05-05 01:28 27.45132 -80.82109 21028 ft 409 kts 37°
2026-05-05 01:29 27.47029 -80.79733 21029 ft 414 kts 49°
2026-05-05 01:29 27.48871 -80.77388 20975 ft 376 kts 31°
2026-05-05 01:29 27.51177 -80.76238 21044 ft 371 kts
2026-05-05 01:29 27.53829 -80.76330 21071 ft 389 kts 340°
2026-05-05 01:30 27.56163 -80.77593 21004 ft 355 kts 316°
2026-05-05 01:30 27.57764 -80.79556 21041 ft 331 kts 306°
2026-05-05 01:30 27.59219 -80.81552 20692 ft 343 kts 306°
2026-05-05 01:30 27.60814 -80.83723 19734 ft 370 kts 306°
2026-05-05 01:31 27.62415 -80.85905 18790 ft 361 kts 307°
2026-05-05 01:31 27.64002 -80.88063 17800 ft 352 kts 307°
2026-05-05 01:31 27.65533 -80.90142 16843 ft 345 kts 307°
2026-05-05 01:31 27.67217 -80.92013 15865 ft 343 kts 321°
2026-05-05 01:32 27.69267 -80.93351 14797 ft 344 kts 331°
2026-05-05 01:32 27.71429 -80.94473 13660 ft 345 kts 335°
2026-05-05 01:32 27.73660 -80.95493 12585 ft 342 kts 337°
2026-05-05 01:32 27.75855 -80.96439 12396 ft 348 kts 337°
2026-05-05 01:33 27.78229 -80.97456 12324 ft 378 kts 338°
2026-05-05 01:33 27.80654 -80.98480 12322 ft 368 kts 338°
2026-05-05 01:33 27.83042 -80.99483 12317 ft 359 kts 338°
2026-05-05 01:33 27.85388 -81.00471 12317 ft 351 kts 338°
2026-05-05 01:34 27.87646 -81.01426 12320 ft 348 kts 338°
2026-05-05 01:34 27.89941 -81.02401 12327 ft 346 kts 338°
2026-05-05 01:34 27.92187 -81.03346 12316 ft 345 kts 338°
2026-05-05 01:34 27.94443 -81.04299 12291 ft 344 kts 338°
2026-05-05 01:35 27.96662 -81.05240 12266 ft 325 kts 338°
2026-05-05 01:35 27.98690 -81.06094 12167 ft 302 kts 338°
2026-05-05 01:35 28.00632 -81.06915 11840 ft 299 kts 338°
2026-05-05 01:35 28.02576 -81.07739 11360 ft 296 kts 337°
2026-05-05 01:36 28.04511 -81.08556 10769 ft 297 kts 338°
2026-05-05 01:36 28.06420 -81.09407 10231 ft 294 kts 336°
2026-05-05 01:36 28.08293 -81.10280 10058 ft 278 kts 332°
2026-05-05 01:36 28.09920 -81.11269 10028 ft 261 kts 340°
2026-05-05 01:37 28.11686 -81.11571 10045 ft 255 kts 353°
2026-05-05 01:37 28.13510 -81.11774 10072 ft 272 kts 351°
2026-05-05 01:37 28.15416 -81.12003 10047 ft 271 kts 352°
2026-05-05 01:37 28.17301 -81.12231 9876 ft 270 kts 351°
2026-05-05 01:38 28.19174 -81.12453 9658 ft 271 kts 352°
2026-05-05 01:38 28.21047 -81.12644 9436 ft 271 kts 356°
2026-05-05 01:38 28.22963 -81.12657 9244 ft 271 kts 357°
2026-05-05 01:38 28.24846 -81.12672 9054 ft 267 kts 358°
2026-05-05 01:39 28.26694 -81.12694 8727 ft 266 kts 358°
2026-05-05 01:39 28.28549 -81.12721 8358 ft 266 kts 357°
2026-05-05 01:39 28.30383 -81.12752 8013 ft 265 kts 357°
2026-05-05 01:39 28.32239 -81.12787 7678 ft 264 kts 358°
2026-05-05 01:40 28.34085 -81.12825 7326 ft 260 kts 358°
2026-05-05 01:40 28.35891 -81.12869 6839 ft 259 kts 357°
2026-05-05 01:40 28.37687 -81.12917 6339 ft 258 kts 358°
2026-05-05 01:40 28.39405 -81.13395 5807 ft 258 kts 327°
2026-05-05 01:41 28.40541 -81.14953 5530 ft 262 kts 290°
2026-05-05 01:41 28.40819 -81.16947 5338 ft 255 kts 274°
2026-05-05 01:41 28.40934 -81.18970 5094 ft 253 kts 274°
2026-05-05 01:41 28.41044 -81.20939 4862 ft 252 kts 274°
2026-05-05 01:42 28.41154 -81.22930 4448 ft 259 kts 274°
2026-05-05 01:42 28.41269 -81.24989 4119 ft 260 kts 274°
2026-05-05 01:42 28.41382 -81.26997 4061 ft 250 kts 274°
2026-05-05 01:42 28.41490 -81.28931 4054 ft 240 kts 274°
2026-05-05 01:43 28.41598 -81.30850 3579 ft 254 kts 274°
2026-05-05 01:43 28.41713 -81.32888 3139 ft 261 kts 274°
2026-05-05 01:43 28.41830 -81.34935 3074 ft 256 kts 274°
2026-05-05 01:43 28.41945 -81.36928 3065 ft 253 kts 274°
2026-05-05 01:44 28.42062 -81.38939 3064 ft 255 kts 274°
2026-05-05 01:44 28.42179 -81.40956 3067 ft 255 kts 274°
2026-05-05 01:44 28.42297 -81.42947 3057 ft 248 kts 274°
2026-05-05 01:44 28.42412 -81.44853 3057 ft 240 kts 274°
2026-05-05 01:45 28.42530 -81.46749 3057 ft 233 kts 274°
2026-05-05 01:45 28.42641 -81.48552 3055 ft 228 kts 274°
2026-05-05 01:45 28.42755 -81.50328 3059 ft 222 kts 274°
2026-05-05 01:45 28.43095 -81.51962 3020 ft 204 kts 306°
2026-05-05 01:46 28.44137 -81.52831 3066 ft 180 kts 352°
2026-05-05 01:46 28.45299 -81.52665 3070 ft 164 kts 37°
2026-05-05 01:46 28.46100 -81.51817 3066 ft 153 kts 53°
2026-05-05 01:46 28.46839 -81.50860 3088 ft 164 kts 52°
2026-05-05 01:47 28.47600 -81.49875 3026 ft 171 kts 51°
2026-05-05 01:47 28.48363 -81.48787 2850 ft 180 kts 60°
2026-05-05 01:47 28.48995 -81.47512 2639 ft 190 kts 66°
2026-05-05 01:47 28.49549 -81.46208 2372 ft 168 kts 68°
2026-05-05 01:48 28.49997 -81.45090 2137 ft 145 kts 70°
2026-05-05 01:48 28.50380 -81.44111 1960 ft 123 kts 71°
2026-05-05 01:48 28.50703 -81.43268 1785 ft 113 kts 71°
2026-05-05 01:48 28.51011 -81.42462 1687 ft 106 kts 71°
2026-05-05 01:49 28.51301 -81.41705 1539 ft 102 kts 71°
2026-05-05 01:49 28.51589 -81.40949 1415 ft 110 kts 70°
2026-05-05 01:49 28.51905 -81.40115 1290 ft 116 kts 70°
2026-05-05 01:49 28.52230 -81.39278 1123 ft 113 kts 70°
2026-05-05 01:50 28.52538 -81.38472 956 ft 109 kts 70°
2026-05-05 01:50 28.52836 -81.37691 788 ft 108 kts 70°
2026-05-05 01:50 28.53150 -81.36897 658 ft 111 kts 68°
2026-05-05 01:50 28.53458 -81.36095 532 ft 112 kts 69°
2026-05-05 01:51 28.53775 -81.35253 403 ft 119 kts 68°
2026-05-05 01:51 28.54101 -81.34412 246 ft 111 kts 69°
2026-05-05 01:51 28.54405 -81.33601 108 ft 109 kts 68°
2026-05-05 01:51 28.54644 -81.32976 110 ft 41 kts 66°
2026-05-05 01:52 28.54727 -81.32808 111 ft 11 kts 32°
2026-05-05 01:52 28.54769 -81.32774 111 ft 2 kts 37°
2026-05-05 01:52 28.54788 -81.32758 111 ft 4 kts 37°
2026-05-05 01:52 28.54809 -81.32740 111 ft 0 kts 37°
2026-05-05 01:53 28.54813 -81.32737 111 ft 0 kts 37°
2026-05-05 01:53 28.54816 -81.32734 110 ft 1 kts 37°
2026-05-05 01:53 28.54834 -81.32719 110 ft 4 kts 33°
2026-05-05 01:53 28.54867 -81.32713 110 ft 5 kts 341°
2026-05-05 01:54 28.54901 -81.32713 110 ft 5 kts
2026-05-05 01:54 28.54941 -81.32714 110 ft 6 kts 353°
2026-05-05 01:54 28.54960 -81.32737 110 ft 3 kts 202°
2026-05-05 01:54 28.54943 -81.32744 110 ft 3 kts 200°
2026-05-05 01:55 28.54934 -81.32748 110 ft 0 kts 200°